This is the latest recevied weather packets stored in our database for station/object IW3HBX-13. If no packets are shown the sender has not sent any weather packets the latest 1 day(s).
| Time | Temp. | Humidity | Pressure | Rain* | Wind** | Luminosity | Snow |
|---|---|---|---|---|---|---|---|
| 1777966567 | 16.67° C | 79% | 1015 hPa | 0 mm | 0 m/s | 123 W/m² | - |
| 1777966207 | 16.67° C | 82% | 1014.9 hPa | 0 mm | 0.45 m/s, 73° | 114 W/m² | - |
| 1777965850 | 16.67° C | 84% | 1014.9 hPa | 0 mm | 0 m/s | 114 W/m² | - |
| 1777965487 | 16.67° C | 84% | 1014.9 hPa | 0 mm | 1.34 m/s, 84° | 106 W/m² | - |
| 1777965127 | 16.67° C | 84% | 1014.7 hPa | 0 mm | 0.89 m/s, 76° | 105 W/m² | - |
| 1777964767 | 16.67° C | 84% | 1014.6 hPa | 0 mm | 0.89 m/s, 63° | 137 W/m² | - |
| 1777964047 | 16.67° C | 83% | 1014.6 hPa | 0 mm | 1.79 m/s, 68° | 113 W/m² | - |
| 1777963690 | 16.67° C | 83% | 1014.6 hPa | 0 mm | 1.34 m/s, 78° | 130 W/m² | - |
| 1777963327 | 16.67° C | 83% | 1014.6 hPa | 0 mm | 1.79 m/s, 75° | 109 W/m² | - |
| 1777962967 | 16.67° C | 83% | 1014.6 hPa | 0 mm | 1.79 m/s, 64° | 90 W/m² | - |
| 1777962608 | 16.67° C | 83% | 1014.6 hPa | 0 mm | 1.34 m/s, 68° | 93 W/m² | - |
| 1777962247 | 16.67° C | 83% | 1014.5 hPa | 0 mm | 1.79 m/s, 71° | 80 W/m² | - |
| 1777961887 | 16.67° C | 84% | 1014.6 hPa | 0 mm | 1.34 m/s, 67° | 70 W/m² | - |
| 1777961529 | 16.11° C | 84% | 1014.5 hPa | 0 mm | 1.34 m/s, 65° | 69 W/m² | - |
| 1777961167 | 16.11° C | 84% | 1014.6 hPa | 0 mm | 1.79 m/s, 71° | 59 W/m² | - |
| 1777960447 | 16.67° C | 84% | 1014.3 hPa | 0 mm | 0.89 m/s, 69° | 30 W/m² | - |
| 1777960087 | 16.67° C | 85% | 1014.2 hPa | 0 mm | 1.79 m/s, 73° | 63 W/m² | - |
| 1777959728 | 16.11° C | 85% | 1014.1 hPa | 0 mm | 1.79 m/s, 65° | 74 W/m² | - |
| 1777959367 | 16.67° C | 85% | 1014 hPa | 0 mm | 1.34 m/s, 57° | 88 W/m² | - |
| 1777958648 | 16.11° C | 86% | 1014 hPa | 0 mm | 2.68 m/s, 64° | 99 W/m² | - |
| 1777958287 | 16.11° C | 86% | 1014.1 hPa | 0 mm | 1.79 m/s, 66° | 110 W/m² | - |
| 1777957927 | 16.11° C | 87% | 1014 hPa | 0 mm | 1.34 m/s, 65° | 106 W/m² | - |
| 1777957567 | 16.11° C | 87% | 1014 hPa | 0 mm | 1.79 m/s, 60° | 96 W/m² | - |
| 1777956847 | 16.11° C | 89% | 1014 hPa | 0 mm | 0.89 m/s, 70° | 50 W/m² | - |
| 1777956487 | 16.11° C | 89% | 1014 hPa | 0 mm | 1.79 m/s, 71° | 33 W/m² | - |
* Rain latest hour (hover to see other rain measurements)
** Current wind speed in m/s (hover to see current wind gust speed)